Terug naar catalogus

STARLINK-3946

ActiefCommunicatieVLEO
NORAD 52693·PAYLOAD·🇺🇸 United States

Gelanceerd May 18, 2022 vanaf Cape Canaveral Space Force Station

Loading…

Volgende Passages (komende 24 uur)

TLE

VersSource: CelesTrak SupGP

Epoch: Sep 14, 2026, 22:13 UTC

1 52693C 22053AP  26257.92618056  .00168050  00000+0  67956-2 0  2577
2 52693  53.1600  12.8561 0001243  79.0490   5.3337 15.24112232    19

Volg STARLINK-3946 in realtime met AllMySat

Download on the App Store